Regional Weather Roundup
Issued by NWS

Home | Current Version | Previous Version | Text Only | Print | Product List | Glossary On
Versions: 1 2 3 4 5 6 7 8 9 10 11 12 13 14 15 16 17 18 19 20 21 22 23 24 25 26 27 28 29 30 31 32 33 34 35 36 37 38 39 40 41 42 43 44 45 46 47 48 49 50
000
ASUS43 KMPX 092210
RWRMN
WEATHER ROUNDUP FOR MINNESOTA
NATIONAL WEATHER SERVICE TWIN CITIES/CHANHASSEN MN
500 PM CDT WED JUL 09 2014


NOTE: "FAIR" INDICATES FEW OR NO CLOUDS BELOW 12,000 FEET WITH NO
SIGNIFICANT WEATHER AND/OR OBSTRUCTIONS TO VISIBILITY. N/A MEANS
CURRENT SKY AND/OR WEATHER CONDITIONS ARE NOT AVAILABLE.

MNZ060>063-068>070-092300-
   Twin Cities Metro

CITY           SKY/WX    TMP DP  RH WIND       PRES   REMARKS
TWIN CITIES    MOSUNNY   79  50  36 NW9       29.98S
ST PAUL        MOSUNNY   79  52  38 N6        29.98S
CRYSTAL        PTSUNNY   79  50  36 CALM      29.97S
BLAINE         PTSUNNY   75  55  50 N10       29.98S
LAKEVILLE      SUNNY     75  50  41 NW3       29.99S
EDEN PRAIRIE   SUNNY     80  51  36 W7        29.98S
SOUTH ST PAUL  MOSUNNY   78  50  37 NW8       29.98S
LAKE ELMO      FAIR      75  54  46 CALM      30.00S
$$
MNZ001>005-007-008-013>017-022>024-027-028-092300-
   Northwest Minnesota

CITY           SKY/WX    TMP DP  RH WIND       PRES   REMARKS
BEMIDJI        PTSUNNY   70  51  49 NW3       30.00S
HALLOCK        SUNNY     72  48  43 CALM      29.99F
ROSEAU         SUNNY     72  55  56 NW5       29.99S
WARROAD        MOSUNNY   72  54  53 E8        29.99F
THIEF RVR FALL SUNNY     72  48  43 NW3       30.00S
CROOKSTON      SUNNY     72  52  49 NW5       30.01S
FOSSTON        SUNNY     72  48  43 CALM      30.01F
DETROIT LAKES  SUNNY     72  50  46 NW7       30.02S
MOORHEAD       SUNNY     73  46  38 NW7       30.01S
PARK RAPIDS    MOSUNNY   73  49  42 NW6       30.00S
$$
MNZ006-009>011-018-025>026-092300-
   North Central Minnesota

CITY           SKY/WX    TMP DP  RH WIND       PRES   REMARKS
BAUDETTE       SUNNY     71  51  49 NW8       30.00F
FLAG ISLAND    MOSUNNY   68  54  60 S6        29.98F
INTL FALLS     MOSUNNY   71  48  43 VRB5      29.99S
WASKISH        SUNNY     72  55  56 SW7       30.00S
LONGVILLE      SUNNY     73  52  46 W7        30.00S
GRAND RAPIDS   SUNNY     72  46  40 CALM      30.00S
CRANE LAKE     SUNNY     68  46  45 NW3       30.01S
ORR            MOSUNNY   70  45  40 NW3       29.97S
COOK           SUNNY     70  48  46 W7        30.00S
$$
MNZ012-019>021-037-092300-
   Northeast Minnesota

CITY           SKY/WX    TMP DP  RH WIND       PRES   REMARKS
DULUTH         MOSUNNY   72  47  40 NW9       29.99S
ELY            SUNNY     70  43  37 NW9       30.00R
HIBBING        MOSUNNY   70  49  47 NW7       29.99S
EVELETH        PTSUNNY   68  45  42 N6        30.01S
DULUTH HARBOR  MOSUNNY   72  48  43 CALM      29.98S
TWO HARBORS    MOSUNNY   68  50  52 SW3       29.97S
SILVER BAY     SUNNY     64  54  68 S9        29.97S
GRAND MARAIS     N/A     55  45  68 W6        29.98S
G MARAIS ARPRT MOSUNNY   66  43  42 W7        30.00R
$$
MNZ029>031-032-039>041-046>048-054>057-064-092300-
   West Central Minnesota

CITY           SKY/WX    TMP DP  RH WIND       PRES   REMARKS
FERGUS FALLS   SUNNY     73  48  40 NW10      30.00S
WHEATON        SUNNY     73  54  49 N8        30.02S
MORRIS         MOSUNNY   75  55  50 N7        30.00S
ALEXANDRIA     SUNNY     74  50  42 NW8       30.02F
ELBOW LAKE     FAIR      73  52  46 NW8       30.00
WADENA         SUNNY     72  54  53 CALM      30.00S
GLENWOOD       SUNNY     75  52  43 NW8       30.02S
APPLETON       PTSUNNY   81  48  32 CALM      29.99F
BENSON         MOSUNNY   75  54  46 NE8       30.00F
ORTONVILLE     SUNNY     79  52  38 W7        30.01S
MADISON        SUNNY     79  52  38 NW6       30.01S
WILLMAR        FAIR      77  48  36 CALM      30.01S
$$
MNZ033>034-036-042>043-049>051-058-059-092300-
   Central Minnesota

CITY           SKY/WX    TMP DP  RH WIND       PRES   REMARKS
ST CLOUD       MOSUNNY   80  50  34 VRB3      29.98F
SAUK CENTRE    MOCLDY    75  50  40 W8        30.00S
PAYNESVILLE    PTSUNNY   71  51  49 W3        30.00S
AITKIN         SUNNY     73  52  46 CALM      29.99R
PINE RIVER     MOSUNNY   73  54  49 NE3       30.03R
BRAINERD       MOSUNNY   80  51  36 NE7       29.99S
STAPLES        MOSUNNY   75  50  41 W8        30.00S
LONG PRAIRIE   FAIR      72  46  40 CALM      30.01S
LITTLE FALLS   MOSUNNY   77  45  31 W7        29.99S
LITCHFIELD     MOSUNNY   79  50  36 W6        30.00S
BUFFALO        MOSUNNY   76  50  39 CALM      30.00S
MAPLE LAKE     SUNNY     78  55  46 N7        30.00S
$$
MNZ037-044-045-052-053-092300-
   East Central Minnesota

CITY           SKY/WX    TMP DP  RH WIND       PRES   REMARKS
PRINCETON      PTSUNNY   79  55  44 NW3       29.99S
MORA           SUNNY     73  46  38 NW8       30.00S
CAMBRIDGE      SUNNY     79  57  47 W8        29.97S
RUSH CITY      SUNNY     76  50  41 W5        29.99S
MOOSE LAKE     MOSUNNY   73  48  40 N3        29.97S
HINCKLEY       FAIR      77  54  44 W9        29.99R
CLOQUET        MOSUNNY   72  45  37 NW6       30.00R
MCGREGOR       MOSUNNY   73  50  43 W6        30.00R
$$
MNZ071>073-080-081-089-090-097-098-092300-
   Southwest Minnesota

CITY           SKY/WX    TMP DP  RH WIND       PRES   REMARKS
MONTEVIDEO     MOSUNNY   82  54  36 N3        30.01S
GRANITE FALLS  MOSUNNY   78  50  37 NW5       30.02S
CANBY          MOSUNNY   80  54  40 N5        30.02S
MARSHALL       SUNNY     79  52  38 MISG      30.00F
REDWOOD FALLS  SUNNY     80  50  34 NW7       29.99F
OLIVIA         MOSUNNY   77  52  41 NW8       30.00S
PIPESTONE      MOSUNNY   79  55  44 CALM      30.02S
WINDOM         MOSUNNY   79  54  41 NW10      30.02S
WORTHINGTON    MOSUNNY   79  57  47 N3        30.03F
JACKSON        MOSUNNY   79  52  38 N3        30.02F
TRACY          SUNNY     79  53  41 NW8       30.01S
SLAYTON        MOSUNNY   78  52  40 CALM      30.03S
$$
MNZ065>067-074>077-082>085-091>093-092300-
   South Central Minnesota

CITY           SKY/WX    TMP DP  RH WIND       PRES   REMARKS
MANKATO        MOSUNNY   79  48  34 NW12      29.99S
NEW ULM        SUNNY     79  52  38 W8        29.99S
ST JAMES       MOSUNNY   79  48  34 NW7       30.01S
FAIRMONT       SUNNY     81  48  32 N9        30.00F
GLENCOE        MOSUNNY   78  50  37 CALM      29.99R
FARIBAULT      MOSUNNY   79  46  31 CALM      30.00S
OWATONNA       PTSUNNY   75  54  46 CALM      30.00S
WASECA         MOSUNNY   77  46  33 NW5       30.01S
ALBERT LEA     MOSUNNY   79  50  36 NW8       30.00S
$$
MNZ078>079-086>088-094>096-092300-
   Southeast Minnesota

CITY           SKY/WX    TMP DP  RH WIND       PRES   REMARKS
ROCHESTER      MOSUNNY   73  55  53 N8        30.02F
RED WING       SUNNY     79  48  34 NW5       29.98S
STANTON        MOSUNNY   78  48  35 N6        29.98S
DODGE CENTER   SUNNY     75  52  43 N3        30.01S
WINONA         SUNNY     77  54  44 N5        30.00F
AUSTIN         MOSUNNY   77  54  44 NE3       30.00F
PRESTON        MOSUNNY   75  56  51 NW6       30.02F
$$
ABBREVIATIONS USED IN REMARKS
   TC - TEMPERATURES IN CELSIUS
  WCI - WIND CHILL INDEX
   HX - HEAT INDEX
  VSB - VISIBILITY
$$


USA.gov is the U.S. government's official web portal to all federal, state and local government web resources and services.